This demonstration page uses our WeatherBlox Daily Observations layout. Learn more.

Left ArrowRight Arrow

Hourly Observations for March 24, 2019

Temp ( °F °C ) Dew Point ( °F °C ) Humidity (%) Winds ( mph kmh ) Pressure ( in mb ) Visibility ( mi km ) Precip ( " mm )
12:51 am 00:51 Clear 48 8.9 30 -1.1 50 50 N N/A 30.01 1016 10 16 N/A
1:51 am 01:51 Clear 47 8.3 30 -1.1 52 52 SE 5 7 30.00 1016 10 16 N/A
2:51 am 02:51 Clear 44 6.7 30 -1.1 58 58 N N/A 30.01 1016 10 16 N/A
3:51 am 03:51 Clear 42 5.6 30 -1.1 62 62 VRB 3 6 30.01 1016 10 16 N/A
4:51 am 04:51 Clear 42 5.6 30 -1.1 62 62 N N/A 30.02 1017 10 16 N/A
5:51 am 05:51 Clear 41 5 30 -1.1 65 65 SSE 6 9 30.04 1017 10 16 N/A
6:51 am 06:51 Sunny 43 6.1 31 -0.6 63 63 N N/A 30.09 1019 10 16 N/A
7:51 am 07:51 Sunny 49 9.4 31 -0.6 50 50 N N/A 30.10 1019 10 16 N/A
8:51 am 08:51 Sunny 55 12.8 32 undefined 42 42 N N/A 30.10 1019 10 16 N/A
9:51 am 09:51 Sunny 62 16.7 31 -0.6 31 31 N N/A 30.09 1019 10 16 N/A
10:51 am 10:51 Sunny 66 18.9 30 -1.1 26 26 VRB 6 9 30.09 1019 10 16 N/A
11:51 am 11:51 Sunny 69 20.6 28 -2.2 22 22 VRB 5 7 30.07 1018 10 16 N/A
12:51 pm 12:51 Sunny 73 22.8 24 -4.4 16 16 undefined N/A 30.06 1018 10 16 N/A
1:51 pm 13:51 Sunny 74 23.3 25 -3.9 16 16 WNW 7 11 30.03 1017 10 16 N/A
2:51 pm 14:51 Sunny 76 24.4 23 -5 14 14 NW 16 26 30.01 1016 10 16 N/A
3:51 pm 15:51 Sunny 75 23.9 24 -4.4 15 15 NW 13 20 30.01 1016 10 16 N/A
4:51 pm 16:51 Sunny 74 23.3 24 -4.4 15 15 NNW 14 22 30.02 1017 10 16 N/A
5:51 pm 17:51 Sunny 71 21.7 22 -5.6 16 16 NW 14 22 30.04 1017 10 16 N/A
6:51 pm 18:51 Clear 66 18.9 24 -4.4 20 20 NW 10 17 30.05 1018 10 16 N/A
7:51 pm 19:51 Clear 62 16.7 26 -3.3 25 25 NNW 10 17 30.07 1018 10 16 N/A
8:51 pm 20:51 Clear 58 14.4 28 -2.2 32 32 WNW 10 17 30.09 1019 10 16 N/A
9:51 pm 21:51 Clear 56 13.3 29 -1.7 36 36 NW 10 17 30.10 1019 10 16 N/A
10:51 pm 22:51 Clear 53 11.7 29 -1.7 40 40 WNW 9 15 30.09 1019 10 16 N/A
11:51 pm 23:51 Clear 50 10 29 -1.7 44 44 NNW 6 9 30.10 1019 10 16 N/A

Powered by AerisWeather